www.pogodaiklimat.ru

Погода и климат >> Архив погоды >> Австралия >> Западная Австралия >> Холс Крик


ПОГОДА в Холс Крик

  • Прогноз погоды в Холс Крик
  • Монитор погоды в Холс Крик

АРХИВ ПОГОДЫ в Холс Крик

Время (UTC), дата Ветер
(напр.,м/с)
 
Видим.   Явления Облачность Т
(С)
Тd
(С)
f
(%)
Тe
(С)
Тes
(С)
Комфортность P
(гПа)
Po
(гПа)
Тmin
(С)
Tmax
(С)
R
(мм)
R24
(мм)
S
(см)
01 15.04 З 3 н/о н/о +31.2 +17.5 44 +35 +35 очень
душно
1012.2 966.4 +19.1
03 15.04 СВ 4 н/о н/о +34.2 +13.1 28 +35 +35 очень
жарко
1010.6 964.9
04 15.04 С 1 н/о н/о +34.5 +12.2 26 +35 +35 очень
жарко
1009.4 963.8
06 15.04 СЗ 3 н/о н/о +36.5 +11.3 22 +36 +36 очень
жарко
1008.0 962.4
07 15.04 В 2 н/о 5/0
[]
+36.7 +11.5 22 +36 +41 очень
жарко
1007.7 962.1
09 15.04 СВ 1 н/о н/о +35.0 +10.1 22 +34 +34 очень
жарко
1008.3 962.7
10 15.04 В 1 н/о н/о +32.1 +9.6 25 +31 +31 жарко 1008.9 963.3
12 15.04 штиль 0 н/о н/о +28.1 +11.6 36 +29 +29 жарко 1010.8 965.1
13 15.04 штиль 0 н/о н/о +27.5 +11.1 36 +28 +28 жарко 1011.3 965.6 +37.7
15 15.04 штиль 0 н/о н/о +25.0 +11.9 44 +27 +27 жарко 1010.8 965.1
16 15.04 Ю 1 н/о н/о +24.5 +11.8 45 +26 +26 жарко 1010.7 965.0
18 15.04 СВ 3 н/о н/о +27.0 +10.7 36 +28 +28 жарко 1010.1 964.4
19 15.04 СВ 2 н/о н/о +27.1 +9.0 32 +27 +27 жарко 1010.2 964.5
21 15.04 штиль 0 н/о н/о +23.0 +10.1 44 +25 +25 комфорт 1011.1 965.4
22 15.04 штиль 0 н/о н/о +22.6 +10.7 47 +25 +25 комфорт 1011.8 966.0
00 16.04 С 3 н/о н/о +30.7 +15.2 39 +33 +33 душно 1012.5 966.7
01 16.04 С 3 н/о н/о +32.5 +15.1 35 +35 +35 душно 1012.6 966.8 +22.2
03 16.04 СВ 3 н/о н/о +34.8 +13.0 27 +35 +35 очень
жарко
1011.1 965.4
04 16.04 С 3 н/о н/о +34.8 +11.9 25 +35 +35 очень
жарко
1010.1 964.4
06 16.04 СВ 3 н/о н/о +37.0 +10.3 20 +36 +36 очень
жарко
1008.5 962.9
07 16.04 В 5 н/о н/о +36.8 +7.8 17 +35 +35 очень
жарко
1008.4 962.8
09 16.04 В 2 н/о н/о +35.2 +4.7 15 +32 +32 жарко 1008.9 963.3
10 16.04 штиль 0 н/о н/о +29.8 +6.5 23 +29 +29 жарко 1009.8 964.1
12 16.04 штиль 0 н/о н/о +26.6 +7.1 29 +26 +26 жарко 1011.3 965.6
13 16.04 штиль 0 н/о н/о +25.7 +7.3 31 +26 +26 жарко 1011.4 965.7 +37.5
15 16.04 СВ 1 н/о н/о +24.5 +8.0 35 +25 +25 комфорт 1011.0 965.3
16 16.04 С 2 н/о н/о +23.6 +7.7 36 +24 +24 комфорт 1010.8 965.1
18 16.04 штиль 0 н/о н/о +22.7 +7.7 38 +24 +24 комфорт 1010.4 964.7
19 16.04 СВ 1 н/о н/о +22.7 +8.0 39 +24 +24 комфорт 1010.5 964.8
21 16.04 штиль 0 н/о н/о +21.7 +9.9 47 +23 +23 комфорт 1011.4 965.7
22 16.04 штиль 0 н/о н/о +21.9 +10.4 48 +24 +24 комфорт 1012.2 966.4
00 17.04 СЗ 2 н/о н/о +30.6 +17.3 45 +35 +35 очень
душно
1012.9 967.1
01 17.04 С 3 н/о н/о +32.8 +15.8 36 +35 +35 душно 1013.1 967.3 +21.6
03 17.04 СВ 3 н/о н/о +34.7 +12.4 26 +35 +35 очень
жарко
1012.0 966.2
04 17.04 СВ 5 н/о н/о +36.1 +9.6 20 +35 +35 очень
жарко
1010.9 965.2
06 17.04 ЮВ 3 н/о н/о +37.6 +8.4 17 +36 +36 очень
жарко
1009.1 963.5
07 17.04 В 5 н/о н/о +37.4 +8.2 17 +35 +35 очень
жарко
1008.7 963.1
09 17.04 В 5 н/о н/о +35.7 +4.1 14 +33 +33 жарко 1009.7 964.0
10 17.04 В 3 н/о н/о +33.1 +3.9 16 +30 +30 жарко 1010.6 964.9
12 17.04 В 2 н/о н/о +27.5 +5.1 24 +26 +26 жарко 1012.3 966.5
13 17.04 ЮВ 2 н/о н/о +25.9 +4.9 26 +25 +25 комфорт 1012.5 966.7 +38.3
15 17.04 В 3 н/о н/о +28.1 +3.7 21 +27 +27 жарко 1012.3 966.5
16 17.04 В 4 н/о н/о +28.4 +5.3 23 +27 +27 жарко 1012.0 966.2
18 17.04 штиль 0 н/о н/о +24.8 +6.1 30 +25 +25 комфорт 1011.1 965.4
19 17.04 С 2 н/о н/о +25.0 +5.7 29 +25 +25 комфорт 1011.3 965.6
21 17.04 штиль 0 н/о н/о +20.0 +6.7 42 +21 +21 комфорт 1011.8 966.0
22 17.04 штиль 0 н/о н/о +20.7 +8.0 44 +22 +22 комфорт 1012.5 966.7
00 18.04 В 6 н/о н/о +31.5 +6.5 21 +30 +30 жарко 1013.8 968.0
01 18.04 СВ 7 н/о н/о +32.9 +9.0 23 +32 +32 жарко 1014.2 968.3 +19.6
03 18.04 В 7 н/о н/о +35.4 +6.6 17 +33 +33 жарко 1012.7 966.9
04 18.04 В 8 н/о н/о +36.3 +5.5 15 +34 +34 очень
жарко
1011.4 965.7
06 18.04 В 6 н/о н/о +37.1 +4.1 13 +34 +34 очень
жарко
1009.9 964.2
07 18.04 В 8 н/о н/о +36.3 +3.5 13 +33 +33 жарко 1009.8 964.1
09 18.04 В 7 н/о н/о +34.2 +2.9 14 +31 +31 жарко 1010.2 964.5
10 18.04 В 4 н/о н/о +32.6 +3.5 16 +30 +30 жарко 1011.1 965.4
12 18.04 В 2 н/о н/о +26.7 +3.9 23 +25 +25 комфорт 1012.8 967.0
13 18.04 ЮВ 2 н/о н/о +25.1 +4.3 26 +24 +24 комфорт 1012.9 967.1 +38.0
15 18.04 В 2 н/о н/о +25.1 +3.7 25 +24 +24 комфорт 1012.5 966.7
16 18.04 В 4 н/о н/о +26.9 +2.1 20 +25 +25 комфорт 1012.1 966.3
18 18.04 В 4 н/о н/о +25.5 +1.6 21 +24 +24 комфорт 1011.8 966.0
19 18.04 ЮВ 2 н/о н/о +24.3 +1.9 23 +23 +23 комфорт 1011.6 965.9
21 18.04 штиль 0 н/о н/о +21.8 +3.5 30 +22 +22 комфорт 1012.4 966.6
22 18.04 штиль 0 н/о н/о +20.4 +4.8 36 +21 +21 комфорт 1013.2 967.4
00 19.04 СВ 9 н/о н/о +30.0 +6.6 23 +29 +29 жарко 1014.0 968.1
01 19.04 СВ 10 н/о н/о +31.4 +7.8 23 +30 +30 жарко 1013.8 968.0 +19.6
03 19.04 СВ 8 н/о н/о +33.7 +9.0 22 +32 +32 жарко 1012.0 966.2
04 19.04 СВ 6 н/о н/о +34.5 +8.3 20 +33 +33 жарко 1010.4 964.7
06 19.04 В 5 н/о н/о +35.4 +7.5 18 +33 +33 жарко 1008.4 962.8
07 19.04 С 3 н/о 1/0
[]
+34.8 +7.8 19 +33 +38 жарко 1007.9 962.3
09 19.04 В 4 н/о н/о +33.4 +8.1 21 +32 +32 жарко 1008.3 962.7
10 19.04 В 2 н/о н/о +30.9 +8.0 24 +30 +30 жарко 1008.9 963.3
12 19.04 штиль 0 н/о н/о +26.3 +8.8 33 +27 +27 жарко 1010.1 964.4
13 19.04 штиль 0 н/о 1/0
[]
+26.6 +8.6 32 +27 +27 жарко 1010.4 964.7 +36.2
15 19.04 штиль 0 н/о н/о +25.4 +8.8 35 +26 +26 жарко 1010.6 964.9
16 19.04 штиль 0 н/о н/о +24.5 +8.9 37 +25 +25 комфорт 1010.3 964.6
18 19.04 В 1 н/о н/о +23.5 +10.6 44 +25 +25 комфорт 1009.7 964.0
19 19.04 штиль 0 н/о 3/0
[]
+23.2 +10.6 45 +25 +25 комфорт 1010.0 964.3
21 19.04 штиль 0 н/о н/о +22.2 +12.2 53 +25 +25 комфорт 1010.8 965.1
22 19.04 штиль 0 н/о 4/0
[]
+22.1 +12.4 54 +25 +25 комфорт 1011.5 965.8
00 20.04 СВ 2 н/о н/о +30.0 +17.5 47 +34 +34 очень
душно
1012.6 966.8
01 20.04 СВ 3 н/о н/о +31.3 +16.5 41 +34 +34 душно 1012.6 966.8 +21.8
03 20.04 В 3 н/о н/о +32.5 +13.2 31 +33 +33 жарко 1011.1 965.4
04 20.04 СЗ 2 н/о 4/0
[]
+33.9 +11.1 25 +33 +46 жарко 1010.0 964.3
06 20.04 ЮВ 5 н/о н/о +34.9 +7.1 18 +33 +33 жарко 1008.0 962.4
07 20.04 Ю 3 н/о 8/0
[]
+35.2 +6.5 17 +33 +36 жарко 1007.5 961.9
09 20.04 ЮВ 4 н/о н/о +33.7 +5.3 17 +31 +31 жарко 1008.3 962.7
10 20.04 З 2 н/о н/о +30.5 +9.9 28 +30 +30 жарко 1008.9 963.3
12 20.04 ЮЗ 2 н/о н/о +25.7 +10.7 39 +27 +27 жарко 1010.3 964.6
13 20.04 ЮЗ 2 н/о н/о +24.9 +10.0 39 +26 +26 жарко 1010.6 964.9 +36.4
15 20.04 штиль 0 н/о н/о +22.7 +8.8 41 +24 +24 комфорт 1009.9 964.2
16 20.04 штиль 0 н/о н/о +22.2 +9.4 44 +24 +24 комфорт 1009.7 964.0
18 20.04 штиль 0 н/о н/о +21.2 +10.1 49 +23 +23 комфорт 1009.6 963.9
19 20.04 штиль 0 н/о н/о +20.4 +9.9 51 +22 +22 комфорт 1009.8 964.1
21 20.04 штиль 0 н/о н/о +20.1 +9.7 51 +21 +21 комфорт 1010.2 964.5
22 20.04 З 1 н/о н/о +20.6 +10.4 52 +23 +23 комфорт 1011.1 965.4
00 21.04 С 1 н/о н/о +29.8 +12.3 34 +31 +31 жарко 1012.1 966.3
01 21.04 ЮВ 1 н/о н/о +31.1 +13.4 34 +32 +32 жарко 1012.5 966.7 +19.7
03 21.04 ЮВ 3 н/о н/о +34.3 +10.8 24 +34 +34 очень
жарко
1010.8 965.1
04 21.04 ЮВ 4 н/о н/о +34.2 +8.8 21 +33 +33 жарко 1009.9 964.2
06 21.04 В 5 н/о н/о +34.9 +5.4 16 +32 +32 жарко 1008.5 962.9
07 21.04 Ю 4 н/о 6/0
[]
+35.3 +5.7 16 +33 +36 жарко 1008.2 962.6
09 21.04 ЮВ 4 н/о н/о +34.0 +5.5 17 +32 +32 жарко 1009.1 963.5
10 21.04 ЮВ 3 н/о 8/0
[]
+32.9 +5.5 18 +31 +31 жарко 1009.8 964.1
12 21.04 В 3 н/о н/о +29.8 +5.8 22 +28 +28 жарко 1011.0 965.3
13 21.04 ЮВ 2 н/о 1/0
[]
+26.5 +6.5 28 +26 +26 жарко 1011.1 965.4 +36.6
15 21.04 В 2 н/о н/о +24.8 +5.6 29 +24 +24 комфорт 1010.7 965.0
16 21.04 Ю 2 н/о н/о +24.7 +6.4 31 +25 +25 комфорт 1010.4 964.7
18 21.04 штиль 0 н/о н/о +23.2 +6.5 34 +24 +24 комфорт 1010.2 964.5
19 21.04 ЮЗ 1 н/о н/о +22.6 +6.0 34 +23 +23 комфорт 1010.4 964.7
21 21.04 ЮВ 2 н/о н/о +22.8 +5.7 33 +23 +23 комфорт 1011.4 965.7
22 21.04 штиль 0 н/о н/о +21.5 +5.4 35 +22 +22 комфорт 1012.2 966.4

 

Местоположение метеостанции Холс Крик (Западная Австралия, Австралия): широта -18.23 долгота 127.66 высота над уровнем моря 424 м.

В архиве по умолчанию представлена погода в Холс Крик за последнюю неделю. Архивные данные за месяц целиком и за предыдущие месяцы, начиная с января 2011 года, Вы можете получить, выбрав интересующий диапазон дат из раскрывающегося списка и нажав кнопку "Ввод!".


*Определитесь, кто Вы:
робот инопланетянин человек

Внимание! Время в таблицах - всемирное. Для получения местного времени необходимо прибавить поправку, которая равна 8 ч.

Смотрите также архив погоды в соседних городах и на ближайших метеорологических станциях:

Погода в Аэропорту Аргайл (Западная Австралия, Австралия) (197 км)
Погода в Фицрой-Кроссинге (Западная Австралия, Австралия) (222 км)
Погода в Кунунарре (Западная Австралия, Австралия) (294 км)
Погода в Уиндеме (Западная Австралия, Австралия) (308 км)
Погода в Ладжаману (Северная территория, Австралия) (314 км)
Погода в Раббит Флат (Северная территория, Австралия) (329 км)
Погода в Виктория-Ривер (Северная территория, Австралия) (411 км)
Погода на Базе ВВС Curtin (Западная Австралия, Австралия) (413 км)
Погода в Дерби (Северная территория, Австралия) (435 км)
Погода в Калумбуру (Западная Австралия, Австралия) (450 км)

Пояснения к столбцам:

Ветер - указаны скорость ветра в м/с - средняя за 10 мин, порывы в срок и между сроками (в фигурных скобках) и направление, откуда дует ветер: С - северный, СВ - северо-восточный, В - восточный, ЮВ - юго-восточный, Ю - южный, ЮЗ - юго-западный, З - западный, СЗ - северо-западный.
Видимость - горизонтальная дальность видимости в метрах или километрах. При видимости от 1 до 10 км при отсутствии осадков обычно наблюдается дымка, при ухудшении видимости до 1 км и менее - туман. В сухую погоду видимость может ухудшаться дымом, пылью или мглою.
Явления - указаны атмосферные явления, наблюдавшиеся в срок или в последний час перед сроком; фигурными скобками обозначены явления, наблюдавшиеся между сроками (за 1-3 часа до срока); квадратными скобками обозначены град или гололедные отложения с указанием их диаметра в мм.
Облачность - указаны через наклонную черту общая и нижняя облачность в баллах и высота нижней границы облаков в метрах; квадратными скобками обозначены формы облаков: Ci - перистые, Cs - перисто-слоистые, Cc - перисто-кучевые, Ac - высококучевые, As - высокослоистые, Sc - слоисто-кучевые, Ns - слоисто-дождевые, Cu - кучевые, Cb - кучево-дождевые. Подробнее классификацию облаков см. в Атласе облаков (PDF).
T - Температура воздуха - температура, измеренная на высоте 2 м над землей.
Td - Температура точки росы - температура, при понижении до которой содержащийся в воздухе водяной пар достигнет насыщения.
f - Относительная влажность воздуха - влажноcть воздуха, измеренная на высоте 2 м над землей.
Te - Эффективная температура - температура, которую ощущает одетый по сезону человек в тени. Характеристика душности погоды. При расчете учитывается влияние влажности воздуха и скорости ветра на теплоощущения человека.
Tes - Эффективная температура на солнце - температура, которую ощущает человек, с поправкой на солнечный нагрев. Характеристика знойности погоды. Зависит от высоты солнца над горизонтом, облачности и скорости ветра. Ночью, в пасмурную погоду, а также при ветре 12 м/с и более поправка равна нулю.
P - Атмосферное давление - приведенное к уровню моря атмосферное давление.
Po - Атмосферное давление - измеренное на уровне метеостанции атмосферное давление.
Tmin - Минимальная температура - минимум температуры воздуха на высоте 2 м над землей.
Tmax - Максимальная температура - максимум температуры воздуха на высоте 2 м над землей.
R - Количество осадков - Количество выпавших осадков за период времени, мм. При наведении курсора мыши на число - период времени, за который выпало указанное количество осадков.
R24 - Количество осадков - Количество выпавших осадков за 24 часа, мм.
S - Снежный покров - Высота снежного покрова, см. При наведении курсора мыши на число - состояние снежного покрова и степень покрытия местности в баллах.